Flag for Turkey Weather past 2 weeks in Konya, Turkey

Now
79 °F

Scattered clouds.


Feels Like: 79 °F
Forecast: 55 / 77 °F
Wind: 2 mph from North

Location: Konya Airport

Current Time: Sep 16, 2014 at 3:27:59 PM

Latest Report: Sep 16, 2014 at 2:50 PM


Visibility: N/A

Pressure: 29.89 "Hg

Humidity: 32%

Dew point: 46 °F

Location of KonyaLocation

Historic Weather in Konya — Graph

°F

Konya temperature yesterday

Maximum temperature yesterday: 81 °F (at 1:50 PM)
Minimum temperature yesterday: 55 °F (at 6:50 AM)
Average temperature yesterday: 67 °F

Past Weeks' High & Low Weather Summary

 TemperatureHumidityPressure
High91 °F (Sep 1, 2:50 PM)94% (Sep 10, 3:50 AM)30.09 "Hg (Sep 10, 3:50 AM)
Low54 °F (Sep 11, 6:50 AM)13% (Sep 1, 1:50 PM)29.74 "Hg (Sep 5, 6:50 PM)
Average72 °F49%29.94 "Hg
* Reported Sep 1 1:50 PM — Sep 16 1:50 PM, Konya, Weather by CustomWeather, © 2014

Note: Actual official high and low records may vary slightly from our data, if they occured in-between our weather recording intervals... More about our weather records

Advertising

Konya weather history for previous 24 hours

 ConditionsComfort  
Time TempWeatherWind HumidityBarometerVisibility
1:50 PM
Sep 16
79 °FScattered clouds.5 mph32%29.92 "HgN/A
12:50 PM77 °FScattered clouds.5 mph36%29.92 "HgN/A
11:50 AM73 °FScattered clouds.2 mph44%29.95 "HgN/A
9:50 AM68 °FPassing clouds.5 mph53%29.95 "HgN/A
8:50 AM64 °FPassing clouds.2 mph68%29.98 "HgN/A
7:50 AM61 °FSunny.No wind77%29.98 "Hg10 mi
6:50 AM57 °FClear.2 mph88%29.95 "Hg10 mi
5:50 AM55 °FClear.No wind88%29.95 "Hg10 mi
4:50 AM57 °FClear.No wind77%29.92 "Hg10 mi
3:50 AM57 °FClear.5 mph77%29.95 "Hg10 mi
2:50 AM57 °FPassing clouds.5 mph82%29.95 "HgN/A
1:50 AM57 °FClear.8 mph88%29.95 "Hg10 mi
12:50 AM59 °FPassing clouds.7 mph82%29.95 "HgN/A
11:50 PM
Sep 15
64 °FPassing clouds.5 mph64%29.95 "HgN/A
10:50 PM63 °FPassing clouds.6 mph73%29.98 "HgN/A
9:50 PM64 °FPassing clouds.6 mph68%29.98 "HgN/A
8:50 PM64 °FPassing clouds.3 mph73%29.98 "HgN/A
7:50 PM64 °FScattered clouds.5 mph73%29.95 "HgN/A
6:50 PM64 °FScattered clouds.5 mph73%29.95 "HgN/A
5:50 PM66 °FThunderstorms. Scattered clouds.16 mph49%29.98 "Hg4 mi
5:03 PM73 °FThunderstorms. Partly sunny.16 mph38%29.95 "HgN/A
4:50 PM79 °FThunderstorms. Partly sunny.9 mph28%29.92 "HgN/A
3:50 PM81 °FPartly sunny.9 mph26%29.92 "HgN/A
Weather by CustomWeather, © 2014

See weather overviewHow to use our weather pages